Skip Page Navigation
NASA JPL Caltech
NASA Logo - Jet Propulsion Laboratory + View the NASA Portal
+ Center for Near-Earth Object Studies
JPL Home Earth Solar System Stars & Galaxies Technology
JPL Solar System Dynamics
BODIES ORBITS EPHEMERIDES TOOLS PHYSICAL DATA DISCOVERY FAQ SITE MAP
IMPORTANT: The SSD Announcement email list is now available. Major changes are coming in the near future, including possible hostname and/or URL changes. To be notified of such changes, subscribe to this email list.

Please visit this page for more details.


JPL Small-Body Database Browser
Search: [ help ]  
324798 (2007 HO20)
Classification: Main-belt Asteroid          SPK-ID: 2324798
Ephemeris | Orbit Diagram | Orbital Elements | Mission Design | Physical Parameters | Discovery Circumstances ]

[ show orbit diagram ]
Orbital Elements at Epoch 2458600.5 (2019-Apr-27.0) TDB
Reference: JPL 11 (heliocentric ecliptic J2000)
 Element Value Uncertainty (1-sigma)   Units 
e .07576334659250086 6.7057e-08  
a 3.005255469267844 7.6296e-08 au
q 2.777567257550696 1.9381e-07 au
i 11.22845270937495 8.5674e-06 deg
node 40.73782306834329 3.09e-05 deg
peri 278.9547930790803 9.3796e-05 deg
M 18.56977525079559 0.00010045 deg
tp 2458502.342233475279
(2019-Jan-18.84223348)
0.00052884 TDB
period 1902.919958462367
5.21
7.2466e-05
1.984e-07
d
yr
n .1891829440324405 7.2044e-09 deg/d
Q 3.232943680984993 8.2077e-08 au
  Orbit Determination Parameters
   # obs. used (total)      173  
   data-arc span      3634 days (9.95 yr)  
   first obs. used      2007-04-18  
   last obs. used      2017-03-30  
   planetary ephem.      DE431  
   SB-pert. ephem.      SB431-N16  
   condition code      0  
   norm. resid. RMS      .59333  
   source      ORB  
   producer      Otto Matic  
   solution date      2017-Apr-10 11:05:23  

Additional Information
 Earth MOID = 1.79348 au 
 Jupiter MOID = 2.01931 au 
 T_jup = 3.218 
[ show covariance matrix ]

Ephemeris | Orbit Diagram | Orbital Elements | Mission Design | Physical Parameters | Discovery Circumstances ]

Physical Parameter Table
Parameter Symbol Value Units Sigma Reference Notes
absolute magnitude H 15.8   n/a MPO310984  
rotation period rot_per 6.08 h n/a LCDB (Rev. 2019-January); Warner et al., 2009 Result based on less than full coverage, so that the period may be wrong by 30 percent or so.
Published Reference List:
[Chang, C.-K.; Lin, H.-W.; Ip, W.-H.; Prince, T.A.; et al. (2016) Astrophys. J. Sup. Ser. 227, A20.]

324798 (2007 HO20)          Discovered 2007-Apr-18 by Spacewatch at Kitt Peak
Reference: 20120406/Numbers.arcLast Updated: 2012-04-09

Alternate Designations
 2007 HO20 = 2009 WV170 
Ephemeris | Orbit Diagram | Orbital Elements | Mission Design | Physical Parameters | Discovery Circumstances ]
ABOUT SSD CREDITS/AWARDS PRIVACY/COPYRIGHT GLOSSARY LINKS
FirstGov 2019-Oct-21 16:31 UT
(server date/time)  
NASA Home Page
Site Manager:   Ryan S. Park
Webmaster  Alan B. Chamberlin